User: anonymous   Login
Location: Bazinghen
(50.8246°N, 1.6616°E)
Time: 15:47:56
(UTC+00:00)
Language:

STARLINK-1254 - Orbit

View from above orbital plane
View from above orbital plane
View from above satellite
View from above satellite

Ground track
Ground track

The orbit data is extracted from the following two-line orbital elements,

1 45216C 20012AQ  21164.45695251 -.00018734  00000-0 -12564-2 0  1643
2 45216  53.0523 233.9406 0001088 103.5518 327.1397 15.06382928    12
Epoch (UTC): 13 June 2021 10:58:00
Eccentricity: 0.0001088
inclination: 53.0523°
perigee height: 546 km
apogee height: 548 km
right ascension of ascending node: 233.9406°
argument of perigee: 103.5518°
revolutions per day: 15.06382928
mean anomaly at epoch: 327.1397°
orbit number at epoch: 1

The dashed part of the orbit path shows where the satellite is in the earth's shadow,  

DLR